Weather History for Jackson, WY

Change the Weather History Date:

Thursday, May 2, 2013

  Actual Average Record
Temperature  
Mean Temperature 34 °F -  
Max Temperature 53 °F 58 °F 74 °F (1981)
Min Temperature 15 °F 26 °F 7 °F (1988)
Degree Days  
Heating Degree Days 31    
Moisture  
Dew Point 16 °F    
Average Humidity 66    
Maximum Humidity 93    
Minimum Humidity 18    
Precipitation  
Precipitation 0.00 in - - ()
Sea Level Pressure  
Sea Level Pressure 30.55 in    
Wind  
Wind Speed 3 mph (NW)    
Max Wind Speed 12 mph    
Max Gust Speed -    
Visibility 10 miles    
Events      
Averages and records for this station are not official NWS values.
T = Trace of Precipitation, MM = Missing Value Source: NWS Daily Summary

Daily Weather History Graph

Daily Weather History Graph

Search for Another Location

Airport:

Trip Planner

Search our weather history database for the weather conditions in past years. The results will help you decide how hot, cold, wet, or windy it might be!

Date:

Astronomy

May. 02, 2013 Rise Set
Actual Time 6:13 AM MDT 8:26 PM MDT
Civil Twilight 5:42 AM MDT 8:58 PM MDT
Nautical Twilight 5:03 AM MDT 9:37 PM MDT
Astronomical Twilight 4:19 AM MDT 10:21 PM MDT
Moon 2:16 AM MDT (5/2) 1:07 PM MDT (5/2)
Length of Visible Light 15h 16m
Length of Day
14h 13m
Waning Gibbous, 47% of the Moon is Illuminated
May 2
Waning Gibbous
May 9
New
May 17
First Quarter
May 24
Full
May 31
Last Quarter

Hourly Weather History & Observations

Time (MDT) Temp. Windchill Dew Point Humidity Pressure Visibility Wind Dir Wind Speed Gust Speed Precip Events Conditions
12:15 AM 23.0 °F 18.4 °F 19.4 °F 86% 30.57 in 10.0 mi ENE 3.5 mph - N/A   Clear
12:35 AM 24.8 °F - 19.4 °F 80% 30.57 in 10.0 mi Calm Calm - N/A   Clear
12:55 AM 26.6 °F 21.2 °F 19.4 °F 74% 30.58 in 10.0 mi West 4.6 mph - N/A   Clear
1:15 AM 21.2 °F - 17.6 °F 86% 30.58 in 10.0 mi Calm Calm - N/A   Clear
1:35 AM 21.2 °F 16.4 °F 17.6 °F 86% 30.59 in 10.0 mi NNW 3.5 mph - N/A   Clear
1:55 AM 21.2 °F 13.6 °F 17.6 °F 86% 30.59 in 10.0 mi North 5.8 mph - N/A   Clear
2:15 AM 21.2 °F 16.4 °F 17.6 °F 86% 30.59 in 10.0 mi East 3.5 mph - N/A   Clear
2:35 AM 19.4 °F - 17.6 °F 93% 30.59 in 10.0 mi Calm Calm - N/A   Clear
2:55 AM 19.4 °F - 17.6 °F 93% 30.60 in 10.0 mi Calm Calm - N/A   Clear
3:35 AM 17.6 °F 9.3 °F 14.0 °F 86% 30.61 in 10.0 mi NNW 5.8 mph - N/A   Clear
3:55 AM 17.6 °F 9.3 °F 15.8 °F 93% 30.61 in 10.0 mi North 5.8 mph - N/A   Clear
4:15 AM 19.4 °F - 17.6 °F 93% 30.62 in 10.0 mi Calm Calm - N/A   Clear
4:35 AM 19.4 °F - 17.6 °F 93% 30.62 in 10.0 mi Calm Calm - N/A   Clear
5:15 AM 17.6 °F - 15.8 °F 93% 30.63 in 10.0 mi Calm Calm - N/A   Clear
5:35 AM 17.6 °F - 15.8 °F 93% 30.64 in 10.0 mi Calm Calm - N/A   Clear
5:55 AM 17.6 °F 9.3 °F 14.0 °F 86% 30.64 in 10.0 mi North 5.8 mph - N/A   Clear
6:15 AM 15.8 °F 6.1 °F 14.0 °F 93% 30.64 in 10.0 mi NNW 6.9 mph - N/A   Clear
6:35 AM 15.8 °F 7.2 °F 14.0 °F 93% 30.65 in 10.0 mi North 5.8 mph - N/A   Clear
6:55 AM 17.6 °F 12.3 °F 15.8 °F 93% 30.65 in 10.0 mi North 3.5 mph - N/A   Clear
7:51 AM 21.2 °F 14.9 °F 17.6 °F 86% 30.66 in 10.0 mi North 4.6 mph - N/A   Clear
8:51 AM 26.6 °F - 17.6 °F 69% 30.66 in 10.0 mi Calm Calm - N/A   Clear
9:58 AM 30.2 °F - 19.4 °F 64% 30.64 in 10.0 mi Calm Calm - N/A   Clear
10:54 AM 33.8 °F 29.6 °F 17.6 °F 52% 30.63 in 10.0 mi SSW 4.6 mph - N/A   Clear
11:55 AM 37.4 °F 34.9 °F 15.8 °F 41% 30.61 in 10.0 mi WSW 3.5 mph - N/A   Clear
12:59 PM 42.8 °F 41.1 °F 14.0 °F 31% 30.58 in 10.0 mi SSE 3.5 mph - N/A   Clear
1:56 PM 44.6 °F - 12.2 °F 27% 30.54 in 10.0 mi Calm Calm - N/A   Clear
2:52 PM 50.0 °F - 14.0 °F 24% 30.52 in 10.0 mi SSE 4.6 mph - N/A   Clear
3:51 PM 51.8 °F - 8.6 °F 18% 30.49 in 10.0 mi Calm Calm - N/A   Clear
4:52 PM 53.6 °F - 10.4 °F 18% 30.47 in 10.0 mi SW 11.5 mph - N/A   Clear
5:56 PM 51.8 °F - 8.6 °F 18% 30.44 in 10.0 mi South 11.5 mph - N/A   Clear
6:53 PM 51.8 °F - 10.4 °F 19% 30.43 in 10.0 mi WSW 9.2 mph - N/A   Clear
7:53 PM 46.4 °F 43.5 °F 12.2 °F 25% 30.41 in 10.0 mi WSW 5.8 mph - N/A   Clear
8:51 PM 42.8 °F 40.1 °F 10.4 °F 27% 30.42 in 10.0 mi SW 4.6 mph - N/A   Clear
9:35 PM 39.2 °F 37.0 °F 12.2 °F 33% 30.43 in 10.0 mi South 3.5 mph - N/A   Unknown
10:15 PM 33.8 °F - 15.8 °F 48% 30.42 in 10.0 mi Calm Calm - N/A   Clear
10:35 PM 32.0 °F 25.6 °F 19.4 °F 60% 30.42 in 10.0 mi North 6.9 mph - N/A   Clear
10:55 PM 30.2 °F 21.9 °F 21.2 °F 69% 30.42 in 10.0 mi North 9.2 mph - N/A   Clear
11:15 PM 28.4 °F 20.4 °F 21.2 °F 74% 30.42 in 10.0 mi North 8.1 mph - N/A   Clear
11:35 PM 28.4 °F 21.2 °F 21.2 °F 74% 30.42 in 10.0 mi North 6.9 mph - N/A   Clear
11:55 PM 28.4 °F - 21.2 °F 74% 30.42 in 10.0 mi Calm Calm - N/A   Clear